Location: Moscow
(55.7500°N, 37.5830°E)
Time: 04:42:10
(UTC+03:00)

Kosmos-337 - Pass Details

Date: 05 July 2022
Orbit: 1467 x 1552 km, 74.0° (Epoch: 13 August)

Event Time Altitude Azimuth Distance (km) Brightness Sun altitude
Rises 02:39:57 0° 333° (NNW) 4,738 ? -7.0°
Reaches altitude 10° 02:43:16 10° 324° (NW) 3,749 ? -6.8°
Maximum altitude 02:51:05 33° 266° (W) 2,363 ? -6.2°
Drops below altitude 10° 02:58:49 10° 206° (SSW) 3,699 ? -5.7°
Enters shadow 03:00:16 - 202° (SSW) 4,119 ? -5.5°
